[[{"header":{"parameterUnit":"m.s-1","parameterCategory":1,"la1":30.2991,"la2":30.254,"lo1":-89.0895,"lo2":-89.0444,"dy":0.0017,"dx":0.0017,"nx":28,"ny":28,"refTime":"2023-09-07T21:00:00:Z","depth":0,"parameterNumber":2,"parameterNumberName":"U-component_of_WINDS"},"data":[0,0,0,0,0,0,0,0,0,0,0,0,0,0,0,0,0,0,0,0,0,0,0,0,0,0,0,0,0,0,0,0,0,0,0,0,0,0,0,0,0,0,0,0,0,0,0,0,0,0,0,0,0,0,0,0,0,0,2.2606,2.2608,0,2.2738,2.2739,2.2741,2.2669,2.2665,2.2661,2.2658,2.2797,2.2804,2.2811,0,0,0,0,0,0,0,0,0,0,0,0,0,2.2296,2.2302,2.2606,2.2608,2.2609,2.2738,2.274,2.2741,2.2669,2.2665,2.2661,2.2656,2.2795,2.2803,2.2812,0,0,0,0,0,0,0,0,0,0,0,0,0,2.243,2.2304,2.2606,2.2589,2.2589,2.2737,2.274,2.2742,2.267,2.2665,2.2659,2.2654,2.2792,2.2803,2.2813,2.2987,0,0,2.2846,2.285,0,0,0,0,0,0,0,0,2.2422,2.2441,2.259,2.259,2.259,2.2681,2.2681,2.2824,2.2672,2.2639,2.2658,2.2652,2.2763,2.2776,2.2813,2.2994,2.3,2.2846,2.2853,2.2857,2.286,0,0,0,0,0,0,0,2.2413,2.2435,2.2658,2.2592,2.2592,2.2576,2.2589,2.2708,2.273,2.2642,2.2637,2.2653,2.2763,2.2803,2.2816,2.3002,2.2846,2.2856,2.2862,2.2866,2.3334,2.334,0,0,0,0,0,0,2.2404,2.2428,2.2654,2.2662,2.2491,2.2586,2.26,2.2658,2.2729,2.2734,2.2658,2.2649,2.2787,2.2803,2.282,2.303,2.2857,2.2867,2.2873,2.3328,2.3335,2.3342,0,0,0,0,0,0,2.2398,2.2425,2.2649,2.2544,2.2571,2.2597,2.2662,2.2663,2.2703,2.2741,2.2745,2.2695,2.2784,2.2805,2.2946,2.3034,2.2872,2.2882,2.3321,2.333,2.3338,2.3451,0,0,0,0,0,0,2.2389,2.2423,2.2489,2.2546,2.2577,2.2772,2.2667,2.267,2.2721,2.2712,2.2776,2.2782,2.2781,2.2931,2.2957,2.3046,2.289,2.3313,2.3325,2.3336,2.344,2.3463,2.3483,0,0,0,0,0,2.2378,2.2516,2.2493,2.252,2.2659,2.2777,2.2795,2.279,2.2728,2.2796,2.282,2.278,2.302,2.2946,2.2975,2.3068,2.3308,2.3322,2.3335,2.343,2.3459,2.3482,0,0,0,0,0,0,2.2471,2.2523,2.2498,2.2658,2.2713,2.2765,2.2849,2.282,2.2895,2.2883,2.2875,2.289,2.3037,2.3066,2.2983,2.3241,2.3154,2.3174,2.3217,2.3244,2.3265,2.3257,2.2899,0,0,0,0,0,2.2509,2.2599,2.2641,2.2778,2.2807,2.2824,2.2875,2.2866,2.2923,2.2947,2.2981,2.3041,2.3129,2.3188,2.3271,2.3443,2.3457,2.3521,2.3543,2.356,2.3579,2.3673,2.3703,2.3386,2.3386,2.3386,0,0,2.2591,2.2631,2.2688,2.2798,2.284,2.2935,2.2844,2.2948,2.3019,2.2963,2.3099,2.3126,2.3191,2.3349,2.342,2.3378,2.3669,2.3578,2.3591,2.36,2.369,2.372,2.3747,2.3396,2.3394,2.3392,0,0,2.2788,2.2827,2.2946,2.2989,2.3054,2.3063,2.3092,2.3148,2.3164,2.3299,2.3259,2.3344,2.3496,2.3545,2.3589,2.3804,2.3771,2.3832,2.3945,2.4037,2.4062,2.4085,2.4163,2.4192,2.3849,2.3849,2.385,0,2.2882,2.3023,2.3011,2.3119,2.3169,2.312,2.3242,2.3285,2.3374,2.3411,2.3361,2.3552,2.3592,2.3761,2.3813,2.385,2.3884,2.3826,2.4059,2.4081,2.4102,2.4177,2.4207,2.3856,2.3856,2.3855,2.3854,0,2.3136,2.3234,2.3322,2.3408,2.3468,2.3582,2.3589,2.3651,2.3636,2.3652,2.3791,2.3837,2.393,2.3968,2.3956,2.4136,2.4108,2.4059,2.3973,2.4139,2.421,2.4239,2.3867,2.3864,2.3862,2.386,0,0,2.3398,2.3474,2.3508,2.3546,2.3613,2.3689,2.3801,2.389,2.3945,2.4007,2.4102,2.4232,2.4187,2.4238,2.423,2.431,2.448,2.4252,2.4253,2.4295,2.4684,2.4723,2.4756,2.4457,2.4463,2.4467,2.4679,0,2.3601,2.3796,2.3789,2.3972,2.4063,2.4018,2.4115,2.4168,2.4185,2.4266,2.4285,2.4378,2.431,2.4341,2.4418,2.4443,2.4559,2.4427,2.4548,2.4553,2.4536,2.4792,2.4833,2.5032,2.4707,2.4711,2.4715,0,2.3866,2.3936,2.4128,2.4181,2.4219,2.4307,2.4388,2.4465,2.4524,2.4531,2.4587,2.4566,2.4681,2.4589,2.4749,2.466,2.4708,2.4728,2.4735,2.4749,2.4646,2.4815,2.5095,2.5126,2.4758,2.4754,2.4751,0,2.4041,2.4183,2.4316,2.435,2.4415,2.4479,2.4509,2.4562,2.4616,2.4687,2.4723,2.4807,2.4854,2.492,2.4923,2.4855,2.5085,2.4992,2.5096,2.5096,2.5149,2.5146,2.5443,2.5176,2.5176,2.5175,2.5174,0,2.4271,2.439,2.4396,2.4478,2.4611,2.4601,2.4733,2.4758,2.4805,2.4892,2.4858,2.4941,2.4938,2.5023,2.5026,2.5159,2.518,2.519,2.519,2.5195,2.5194,2.5229,2.5217,2.5183,2.5181,2.518,2.5178,0,2.449,2.4498,2.4641,2.469,2.4705,2.4801,2.4844,2.4923,2.4936,2.5047,2.5072,2.5094,2.5192,2.52,2.5314,2.5316,2.5478,2.5461,2.5458,2.5456,2.556,2.5551,2.5892,2.5937,2.5638,2.5641,2.5644,0,2.4638,2.4729,2.4787,2.4842,2.4876,2.4966,2.502,2.5014,2.5073,2.5146,2.5217,2.5311,2.5386,2.5545,2.5572,2.5659,2.5646,2.5759,2.5659,2.5662,2.5651,2.5647,2.5657,2.578,2.5783,2.5786,2.5788,0,2.49,2.4899,2.4979,2.506,2.5126,2.519,2.525,2.5297,2.5298,2.5366,2.5465,2.5523,2.5639,2.5734,2.5819,2.5851,2.5822,2.5818,2.5848,2.5855,2.5851,2.5857,2.5514,2.5812,2.5809,2.5808,2.5806,2.5805,2.509,2.5169,2.5223,2.5313,2.5356,2.5413,2.549,2.5511,2.5593,2.5686,2.5677,2.5787,2.5844,2.5955,2.5994,2.6081,2.6043,2.6085,2.6096,2.6107,2.6119,2.5834,2.6096,2.6096,2.6095,2.6094,2.6094,0,2.5353,2.5385,2.5467,2.5551,2.5622,2.5584,2.5648,2.5711,2.5808,2.5862,2.5936,2.6051,2.6142,2.6176,2.6265,2.6329,2.6317,2.6353,2.635,2.6358,2.6147,2.6114,2.6361,2.636,2.636,2.636,2.636,2.636,2.5498,2.563,2.5636,2.579,2.582,2.5927,2.5967,2.602,2.6063,2.6192,2.6267,2.6287,2.6334,2.6426,2.6509,2.6517,2.6553,2.6595,2.6597,2.6399,2.6373,2.6347,2.6316,2.6602,2.6602,2.6801,2.6803,2.6805]},{"header":{"parameterUnit":"m.s-1","parameterCategory":1,"la1":30.2991,"la2":30.254,"lo1":-89.0895,"lo2":-89.0444,"dy":0.0017,"dx":0.0017,"nx":28,"ny":28,"refTime":"2023-09-07T21:00:00:Z","depth":0,"parameterNumber":3,"parameterNumberName":"V-component_of_WINDS"},"data":[0,0,0,0,0,0,0,0,0,0,0,0,0,0,0,0,0,0,0,0,0,0,0,0,0,0,0,0,0,0,0,0,0,0,0,0,0,0,0,0,0,0,0,0,0,0,0,0,0,0,0,0,0,0,0,0,0,0,0.5133,0.5134,0,0.5262,0.5264,0.5265,0.5207,0.5204,0.5201,0.5198,0.5336,0.5342,0.5349,0,0,0,0,0,0,0,0,0,0,0,0,0,0.484,0.4846,0.5133,0.5134,0.5136,0.5262,0.5264,0.5265,0.5208,0.5204,0.52,0.5197,0.5334,0.5342,0.535,0,0,0,0,0,0,0,0,0,0,0,0,0,0.4968,0.4848,0.5132,0.5122,0.5123,0.5261,0.5264,0.5266,0.5209,0.5204,0.5199,0.5195,0.5331,0.5341,0.5351,0.5509,0,0,0.5381,0.5385,0,0,0,0,0,0,0,0,0.4961,0.4979,0.5122,0.5123,0.5124,0.5213,0.5211,0.5347,0.521,0.5176,0.5198,0.5192,0.5299,0.5312,0.5347,0.5515,0.5521,0.5382,0.5388,0.5392,0.5395,0,0,0,0,0,0,0,0.4952,0.4973,0.5184,0.5124,0.5125,0.5113,0.5126,0.5237,0.5263,0.5179,0.5175,0.5191,0.5299,0.5337,0.535,0.5523,0.5382,0.5391,0.5397,0.5401,0.5829,0.5834,0,0,0,0,0,0,0.4943,0.4966,0.518,0.5188,0.5029,0.5122,0.5136,0.519,0.5262,0.5268,0.5195,0.5188,0.5323,0.5338,0.5354,0.5545,0.5392,0.5402,0.5407,0.5823,0.583,0.5836,0,0,0,0,0,0,0.4937,0.4963,0.5175,0.5076,0.5102,0.5132,0.5193,0.5195,0.5233,0.5274,0.5279,0.5229,0.5319,0.534,0.5471,0.5549,0.5406,0.5415,0.5817,0.5825,0.5833,0.5928,0,0,0,0,0,0,0.4929,0.4961,0.502,0.5078,0.5107,0.5288,0.5197,0.5201,0.525,0.5242,0.5307,0.5313,0.5317,0.5456,0.5481,0.556,0.5423,0.581,0.5821,0.583,0.5918,0.5938,0.5956,0,0,0,0,0,0.4919,0.5043,0.5023,0.505,0.5182,0.5292,0.531,0.531,0.5256,0.5317,0.5343,0.5311,0.5536,0.547,0.5497,0.5581,0.5805,0.5818,0.583,0.591,0.5934,0.5955,0,0,0,0,0,0,0.4996,0.505,0.5029,0.5175,0.5229,0.5282,0.5359,0.5336,0.5408,0.5398,0.5396,0.5412,0.5547,0.5576,0.5502,0.5738,0.5663,0.5681,0.5714,0.5738,0.5757,0.5748,0.5431,0,0,0,0,0,0.5029,0.5112,0.5156,0.5281,0.5309,0.5329,0.5377,0.5373,0.543,0.5453,0.5488,0.5546,0.563,0.5685,0.5764,0.5921,0.5936,0.5992,0.6011,0.6026,0.6043,0.613,0.6156,0.5875,0.5875,0.5875,0,0,0.51,0.514,0.5193,0.5297,0.5339,0.5427,0.5349,0.5446,0.5512,0.5468,0.5593,0.5622,0.5686,0.5831,0.5896,0.586,0.6123,0.6042,0.6053,0.6062,0.6145,0.6171,0.6195,0.5884,0.5882,0.5881,0,0,0.5275,0.5313,0.5422,0.5464,0.5527,0.554,0.5566,0.5622,0.5639,0.5764,0.5733,0.5812,0.5956,0.6003,0.6046,0.6238,0.6212,0.6264,0.6363,0.6448,0.647,0.649,0.656,0.6585,0.628,0.628,0.628,0,0.5357,0.5486,0.5481,0.558,0.5627,0.5589,0.57,0.5742,0.5829,0.5863,0.582,0.6,0.604,0.6196,0.6243,0.6278,0.631,0.6258,0.6467,0.6487,0.6505,0.6572,0.6599,0.6286,0.6285,0.6285,0.6284,0,0.5584,0.5675,0.5755,0.5838,0.5894,0.5998,0.601,0.6068,0.6058,0.6076,0.6205,0.6251,0.634,0.6376,0.6368,0.6532,0.6507,0.6466,0.639,0.6538,0.6601,0.6627,0.6295,0.6292,0.6291,0.6289,0,0,0.5814,0.589,0.592,0.5958,0.6024,0.6095,0.6198,0.6282,0.6333,0.6393,0.6482,0.6603,0.6565,0.6614,0.6611,0.6685,0.6836,0.6634,0.6636,0.6672,0.7022,0.7054,0.7084,0.6818,0.6823,0.6827,0.7017,0,0.5995,0.6174,0.6172,0.6339,0.6424,0.6388,0.6478,0.653,0.6549,0.6625,0.6646,0.6733,0.6675,0.6705,0.6776,0.6803,0.6907,0.6788,0.6902,0.6907,0.689,0.7117,0.7152,0.7329,0.7041,0.7046,0.7049,0,0.6231,0.6298,0.6473,0.6527,0.6562,0.6643,0.6721,0.6793,0.6851,0.6859,0.6914,0.6899,0.7005,0.6924,0.7073,0.6992,0.7039,0.7059,0.7066,0.7079,0.6988,0.7138,0.7385,0.7413,0.7087,0.7084,0.7081,0,0.6384,0.6517,0.6639,0.6672,0.6737,0.6795,0.6826,0.6878,0.693,0.6998,0.7031,0.7112,0.7156,0.722,0.7227,0.7167,0.7377,0.7297,0.739,0.739,0.7438,0.7436,0.7699,0.7464,0.7463,0.7463,0.7462,0,0.6588,0.6697,0.6709,0.6784,0.6906,0.6902,0.7023,0.7049,0.7096,0.7177,0.7151,0.7228,0.7232,0.7312,0.7318,0.7441,0.7461,0.7473,0.7474,0.7477,0.7476,0.7509,0.7498,0.747,0.7468,0.7467,0.7466,0,0.678,0.6792,0.6923,0.6974,0.6989,0.7077,0.712,0.7194,0.7209,0.7312,0.7336,0.7362,0.7454,0.7467,0.7575,0.758,0.7728,0.7715,0.7709,0.7708,0.7801,0.7793,0.8097,0.8138,0.7874,0.7876,0.7878,0,0.6911,0.6994,0.7053,0.7105,0.7137,0.7221,0.7273,0.7272,0.7328,0.7399,0.7464,0.7553,0.7625,0.7774,0.7804,0.7887,0.7877,0.7978,0.789,0.789,0.7882,0.7878,0.7887,0.7996,0.7999,0.8001,0.8003,0,0.7144,0.7145,0.7219,0.7297,0.7358,0.7419,0.7477,0.7521,0.7528,0.7592,0.7685,0.774,0.785,0.794,0.8022,0.8055,0.8032,0.803,0.8056,0.8062,0.8055,0.8062,0.7758,0.8024,0.8022,0.802,0.8019,0.8018,0.7311,0.7383,0.7436,0.752,0.7563,0.7617,0.7688,0.7712,0.7789,0.7877,0.7872,0.7976,0.8032,0.8139,0.8178,0.8259,0.8227,0.8265,0.8275,0.8285,0.8295,0.804,0.8274,0.8274,0.8273,0.8273,0.8272,0,0.7543,0.7575,0.7652,0.7733,0.78,0.7768,0.783,0.7889,0.7979,0.8033,0.8103,0.8211,0.8298,0.8333,0.8419,0.8477,0.8469,0.85,0.8497,0.8506,0.8318,0.8288,0.8506,0.8506,0.8506,0.8506,0.8506,0.8505,0.7673,0.7794,0.7802,0.7944,0.7975,0.8075,0.8113,0.8164,0.8206,0.8327,0.8399,0.842,0.8467,0.8556,0.8635,0.8643,0.8677,0.8714,0.8718,0.8542,0.8519,0.8496,0.8468,0.872,0.8721,0.8899,0.89,0.8902]}]]